Faribault, MN

12:25 AM CDT on August 21, 2017 (GMT -0500)
Faribault Municipal

Weather History for KFBL - May, 2013

Change the Weather History Date:

Monday, May 27, 2013

  Actual Average Record
Temperature  
Mean Temperature 53 °F -  
Max Temperature 55 °F 71 °F 93 °F (1969)
Min Temperature 51 °F 50 °F 33 °F (1971)
Degree Days  
Heating Degree Days 12    
Growing Degree Days 3 (Base 50)    
Moisture  
Dew Point 53 °F    
Average Humidity 96    
Maximum Humidity 100    
Minimum Humidity 94    
Precipitation  
Precipitation 0.20 in - - ()
Sea Level Pressure  
Sea Level Pressure 29.91 in    
Wind  
Wind Speed 11 mph (East)    
Max Wind Speed 16 mph    
Max Gust Speed 24 mph    
Visibility 7 miles    
Events Rain    
Averages and records for this station are not official NWS values.
T = Trace of Precipitation, MM = Missing Value Source: NWS Daily Summary

Daily Weather History Graph

Daily Weather History Graph

Search for Another Location

Airport or City:

Trip Planner

Search our weather history database for the weather conditions in past years. The results will help you decide how hot, cold, wet, or windy it might be!

Date:

Astronomy

May. 27, 2013 Rise Set
Actual Time 5:35 AM CDT 8:46 PM CDT
Civil Twilight 5:00 AM CDT 9:21 PM CDT
Nautical Twilight 4:14 AM CDT 10:07 PM CDT
Astronomical Twilight 3:19 AM CDT 11:02 PM CDT
Moon 11:23 PM CDT (5/27) 8:14 AM CDT (5/27)
Length of Visible Light 16h 21m
Length of Day
15h 11m
Waning Gibbous, 91% of the Moon is Illuminated
May 27
Waning Gibbous
May 31
Last Quarter
Jun 8
New
Jun 16
First Quarter
Jun 23
Full

Hourly Weather History & Observations

Time (CDT) Temp. Dew Point Humidity Pressure Visibility Wind Dir Wind Speed Gust Speed Precip Events Conditions
12:14 AM 53.6 °F 51.8 °F 94% 30.04 in 10.0 mi East 12.7 mph - N/A   Overcast
12:34 AM 53.6 °F 51.8 °F 94% 30.04 in 10.0 mi East 15.0 mph 19.6 mph N/A   Overcast
12:54 AM 53.6 °F 51.8 °F 94% 30.02 in 10.0 mi East 11.5 mph 20.7 mph N/A   Overcast
1:14 AM 53.6 °F 51.8 °F 94% 30.02 in 10.0 mi East 11.5 mph 17.3 mph N/A   Overcast
1:34 AM 53.6 °F 51.8 °F 94% 30.02 in 10.0 mi East 12.7 mph 20.7 mph N/A   Overcast
1:54 AM 53.6 °F 51.8 °F 94% 30.01 in 10.0 mi ESE 13.8 mph 19.6 mph N/A   Overcast
2:14 AM 53.6 °F 51.8 °F 94% 30.00 in 7.0 mi East 11.5 mph 18.4 mph N/A   Overcast
2:34 AM 53.6 °F 51.8 °F 94% 30.01 in 7.0 mi ESE 10.4 mph - N/A   Overcast
2:54 AM 53.6 °F 51.8 °F 94% 30.00 in 7.0 mi East 9.2 mph - N/A   Overcast
3:14 AM 53.6 °F 51.8 °F 94% 29.99 in 7.0 mi East 4.6 mph 9.2 mph N/A   Overcast
3:34 AM 53.6 °F 51.8 °F 94% 29.97 in 7.0 mi East 12.7 mph 16.1 mph N/A   Overcast
3:54 AM 53.6 °F 51.8 °F 94% 29.96 in 7.0 mi East 9.2 mph - N/A   Overcast
4:14 AM 53.6 °F 51.8 °F 94% 29.96 in 7.0 mi East 12.7 mph - N/A   Overcast
4:34 AM 53.6 °F 51.8 °F 94% 29.96 in 5.0 mi East 8.1 mph - N/A   Overcast
4:54 AM 53.6 °F 51.8 °F 94% 29.97 in 5.0 mi East 9.2 mph - N/A   Overcast
5:14 AM 53.6 °F 51.8 °F 94% 29.96 in 5.0 mi East 10.4 mph - N/A   Overcast
5:34 AM 53.6 °F 51.8 °F 94% 29.96 in 4.0 mi East 9.2 mph - N/A   Overcast
5:54 AM 53.6 °F 51.8 °F 94% 29.97 in 3.0 mi East 8.1 mph - N/A   Overcast
6:14 AM 53.6 °F 51.8 °F 94% 29.98 in 3.0 mi ESE 6.9 mph - N/A   Overcast
6:34 AM 53.6 °F 51.8 °F 94% 30.00 in 3.0 mi ESE 9.2 mph - N/A   Overcast
6:54 AM 53.6 °F 53.6 °F 100% 29.99 in 1.2 mi East 6.9 mph - N/A   Overcast
7:14 AM 51.8 °F 51.8 °F 100% 29.97 in 0.8 mi East 6.9 mph - N/A   Overcast
7:34 AM 51.8 °F 51.8 °F 100% 29.95 in 1.2 mi East 9.2 mph - N/A   Overcast
7:53 AM 51.8 °F 51.8 °F 100% 29.94 in 1.8 mi East 10.4 mph - N/A   Overcast
8:14 AM 51.8 °F 51.8 °F 100% 29.94 in 2.5 mi East 8.1 mph - N/A   Overcast
8:34 AM 53.6 °F 51.8 °F 94% 29.93 in 3.0 mi East 8.1 mph - N/A   Overcast
8:54 AM 53.6 °F 51.8 °F 94% 29.94 in 2.0 mi East 8.1 mph - N/A   Overcast
9:14 AM 53.6 °F 51.8 °F 94% 29.95 in 2.5 mi East 10.4 mph - N/A   Overcast
9:34 AM 53.6 °F 51.8 °F 94% 29.95 in 4.0 mi East 9.2 mph - N/A   Overcast
9:54 AM 53.6 °F 51.8 °F 94% 29.94 in 4.0 mi East 11.5 mph - N/A   Overcast
10:14 AM 53.6 °F 51.8 °F 94% 29.93 in 5.0 mi ENE 11.5 mph - N/A   Overcast
10:34 AM 53.6 °F 53.6 °F 100% 29.93 in 4.0 mi ENE 9.2 mph - N/A Rain Light Rain
10:54 AM 53.6 °F 53.6 °F 100% 29.93 in 5.0 mi ENE 10.4 mph 17.3 mph N/A   Light Drizzle
11:14 AM 53.6 °F 51.8 °F 94% 29.92 in 5.0 mi ENE 11.5 mph - N/A Rain Light Rain
11:34 AM 53.6 °F 51.8 °F 94% 29.91 in 5.0 mi East 12.7 mph 18.4 mph 0.02 in Rain Rain
11:54 AM 53.6 °F 53.6 °F 100% 29.89 in 7.0 mi ENE 12.7 mph 18.4 mph 0.03 in Rain Light Rain
12:14 PM 53.6 °F 53.6 °F 100% 29.88 in 7.0 mi East 13.8 mph 24.2 mph N/A Rain Light Rain
12:34 PM 53.6 °F 53.6 °F 100% 29.87 in 7.0 mi East 13.8 mph 20.7 mph N/A Rain Light Rain
12:54 PM 55.4 °F 53.6 °F 94% 29.86 in 7.0 mi East 13.8 mph 20.7 mph N/A Rain Light Rain
1:14 PM 55.4 °F 53.6 °F 94% 29.86 in 7.0 mi East 15.0 mph 19.6 mph N/A Rain Light Rain
1:34 PM 55.4 °F 53.6 °F 94% 29.86 in 7.0 mi East 13.8 mph 21.9 mph N/A   Light Drizzle
1:54 PM 55.4 °F 55.4 °F 100% 29.85 in 10.0 mi East 16.1 mph - N/A Rain Light Rain
2:14 PM 55.4 °F 53.6 °F 94% 29.86 in 10.0 mi East 10.4 mph 17.3 mph N/A   Overcast
2:34 PM 55.4 °F 53.6 °F 94% 29.86 in 10.0 mi East 11.5 mph - N/A Rain Light Rain
2:54 PM 55.4 °F 55.4 °F 100% 29.87 in 10.0 mi East 8.1 mph - 0.01 in Rain Light Rain
3:14 PM 55.4 °F 55.4 °F 100% 29.87 in 7.0 mi East 8.1 mph 16.1 mph 0.01 in Rain Light Rain
3:34 PM 55.4 °F 55.4 °F 100% 29.88 in 5.0 mi East 5.8 mph - 0.02 in Rain Light Rain
3:53 PM 55.4 °F 55.4 °F 100% 29.88 in 5.0 mi East 4.6 mph - 0.03 in Rain Light Rain
4:14 PM 55.4 °F 55.4 °F 100% 29.88 in 5.0 mi East 5.8 mph - 0.02 in Rain Light Rain
4:34 PM 55.4 °F 55.4 °F 100% 29.87 in 5.0 mi ENE 4.6 mph - 0.05 in Rain Rain
4:54 PM 55.4 °F 55.4 °F 100% 29.87 in 4.0 mi ENE 8.1 mph - 0.06 in Rain Light Rain
5:14 PM 55.4 °F 55.4 °F 100% 29.87 in 4.0 mi ENE 9.2 mph - 0.02 in Rain Light Rain
5:34 PM 55.4 °F 55.4 °F 100% 29.86 in 7.0 mi ENE 9.2 mph - 0.04 in Rain Light Rain
5:54 PM 55.4 °F 55.4 °F 100% 29.85 in 7.0 mi ENE 8.1 mph - 0.07 in Rain Light Rain
6:14 PM 55.4 °F 55.4 °F 100% 29.84 in 10.0 mi ENE 9.2 mph - N/A   Overcast
6:33 PM 55.4 °F 55.4 °F 100% 29.83 in 10.0 mi East 10.4 mph 19.6 mph N/A   Overcast
6:54 PM 55.4 °F 55.4 °F 100% 29.83 in 10.0 mi East 9.2 mph 19.6 mph N/A   Overcast
7:14 PM 55.4 °F 55.4 °F 100% 29.84 in 10.0 mi East 11.5 mph - N/A   Overcast
7:34 PM 55.4 °F 55.4 °F 100% 29.84 in 10.0 mi East 10.4 mph - N/A   Overcast
7:54 PM 55.4 °F 55.4 °F 100% 29.85 in 10.0 mi East 8.1 mph - N/A   Overcast
8:14 PM 55.4 °F 55.4 °F 100% 29.85 in 10.0 mi East 10.4 mph - N/A   Overcast
8:34 PM 55.4 °F 55.4 °F 100% 29.85 in 10.0 mi East 9.2 mph - N/A   Overcast
8:54 PM 55.4 °F 53.6 °F 94% 29.84 in 10.0 mi East 9.2 mph - N/A   Overcast
9:14 PM 55.4 °F 53.6 °F 94% 29.83 in 10.0 mi East 9.2 mph - N/A   Overcast
9:34 PM 55.4 °F 53.6 °F 94% 29.84 in 10.0 mi East 8.1 mph - N/A   Overcast
9:54 PM 55.4 °F 53.6 °F 94% 29.85 in 10.0 mi ENE 8.1 mph - N/A   Overcast
10:14 PM 55.4 °F 53.6 °F 94% 29.84 in 7.0 mi East 10.4 mph - N/A   Overcast
10:34 PM 55.4 °F 53.6 °F 94% 29.85 in 7.0 mi ENE 6.9 mph - N/A   Overcast
10:54 PM 55.4 °F 53.6 °F 94% 29.84 in 5.0 mi ENE 9.2 mph - N/A   Overcast
11:14 PM 55.4 °F 55.4 °F 100% 29.83 in 10.0 mi ENE 9.2 mph 16.1 mph N/A   Overcast
11:33 PM 55.4 °F 53.6 °F 94% 29.83 in 10.0 mi ENE 8.1 mph - N/A   Overcast
11:54 PM 55.4 °F 53.6 °F 94% 29.83 in 10.0 mi East 8.1 mph - N/A   Overcast